Preview of NWS' New Version of Forecast
This preview is not operational and should not be used for support decisions.

Regional Weather Roundup (RWR)

Issued by National Weather Service (NWS)

                            
000
ASUS44 KJAN 192110
RWRMS 

MISSISSIPPI HOURLY WEATHER ROUNDUP
NATIONAL WEATHER SERVICE JACKSON MS
400 PM CDT THU SEP 19 2019

NOTE: "FAIR: INDICATES FEW OR NO CLOUDS BELOW 12,000 FEET WITH NO
SIGNIFICANT WEATHER AND/OR OBSTRUCTIONS TO VISIBILITY.

MSZ001>002-007>008-010>013-018>021-025>028-034>036-192200-
NORTHWEST MISSISSIPPI
  
CITY           SKY/WX    TMP DP  RH WIND       PRES   REMARKS
BATESVILLE     FAIR      91  72  52 SE9G15    29.97F HX  98           
CLARKSDALE       N/A     95  70  43 SE15      29.94F HX 101           
CLEVELAND      MOCLDY    93  68  44 SW22      29.95R HX  97           
GREENWOOD      FAIR      95  72  47 E10       29.95F HX 103           
GREENVILLE     FAIR      94  69  44 E6        29.93F HX  99           
OLIVE BRANCH   PTSUNNY   88  66  48 S3        29.98F HX  90           
OXFORD         FAIR      88  70  55 SE9G15    30.02F HX  92           
TUNICA           N/A     88  70  55 E7        29.96F HX  92           
WINONA         FAIR      88  73  61 E5        29.99F HX  95           
$$

MSZ003>006-009-014>017-022>024-029>033-037>039-192200-
NORTHEAST MISSISSIPPI
  
CITY           SKY/WX    TMP DP  RH WIND       PRES   REMARKS
ABERDEEN       CLOUDY    82  66  57 SE5       30.05F                  
COLUMBUS AFB   PTSUNNY   84  71  64 E6        30.03F                  
CORINTH        FAIR      86  70  58 SE9G16    30.05F HX  90           
GOLDN TRIANGLE CLOUDY    86  72  62 E12       30.04F HX  92           
STARKVILLE     CLOUDY    84  70  61 E8        30.04F                  
TUPELO         CLOUDY    85  69  58 S9        30.04F                  
$$

MSZ040-058-192200-
CENTRAL MISSISSIPPI
  
CITY           SKY/WX    TMP DP  RH WIND       PRES   REMARKS
JACKSON INTL   PTSUNNY   86  69  56 SW10G22   29.96S HX  90           
JACKSON HAWKNS PTSUNNY   86  69  56 NW9       29.97S HX  90           
MADISON        MOCLDY    82  70  65 CALM      29.97S THUNDER          
MERIDIAN KEY   PTSUNNY   87  73  62 SE9       30.02F HX  94           
MERIDIAN NAS   PTSUNNY   87  71  58 SE10      30.03F HX  93           
RAYMOND          N/A     93  72  49 S9        29.95S HX 100           
VICKSBURG VKS  CLEAR     91  70  49 CALM      29.95S HX  97           
$$

MSZ059>079-192200-
SOUTH MISSISSIPPI
  
CITY           SKY/WX    TMP DP  RH WIND       PRES   REMARKS
BROOKHAVEN     FAIR      90  68  48 NE6       29.99R HX  93           
HATTIESBURG    FAIR      81  67  62 VRB5      30.02R                  
LAUREL         PTCLDY    89  74  61 E10       29.98F HX  97           
MCCOMB         FAIR      89  69  51 SW8       29.97F HX  93           
NATCHEZ        FAIR      88  71  57 SW6       29.98R HX  94           
PINE BELT      TSTM      75  73  93 SE15G30   30.02R                  
$$

MSZ080>082-192200-
COASTAL MISSISSIPPI
  
CITY           SKY/WX    TMP DP  RH WIND       PRES   REMARKS
BILOXI         TSTM      77  75  94 SE7       30.01S                  
PASCAGOULA     NOT AVBL                                               
GULFPORT       NOT AVBL                                               
$$

LAZ007>009-015>016-023>026-192200-
NORTHEAST LOUISIANA
  
CITY           SKY/WX    TMP DP  RH WIND       PRES   REMARKS
BASTROP        FAIR      84  69  60 SW13      29.97S                  
TALLULAH/VBURG FAIR      93  69  45 S8        29.95F HX  98           
VIDALIA        FAIR     N/A N/A N/A S8        29.96S                  
$$